Presure
132 150 136 131 135 74 140 147 153 172 180 179 152 176 175 175 146 157 165 185 187 155 114 110 161 172 180 171 144 167 172 135 219 164 133 166 177 164 182 167 179 198 215
148 141 141 144 144 148 148 152 157 183 186 178 190 172 173 143 177 152 112 177 168 140 133 154 176 157 155 147 108 160 159 164 158 183 174 178 195 141 185 171 178 113 189
161 153 176 170 150 149 183 168 200 181 169 182 175 176 171 186 158 163 162 173 157 143 154 141 150 180 169 168 141 163 180 173 167 148 184 176 148 142 136 183 196 175 180
170 164 165 167 162 151 152 206 189 181 177 173 176 165 184 169 175 168 181 160 169 173 139 148 164 166 173 175 176 135 180 146 120 191 166 161 151 191 149 190 152 204 179
171 169 166 166 160 159 188 157 201 178 182 176 178 167 154 157 178 171 172 167 176 158 170 155 136 155 138 169 140 142 172 200 147 164 137 195 149 151 127 135 186 142 173
171 172 184 182 187 190 198 169 202 201 201 179 171 173 174 170 172 175 183 192 169 177 151 180 168 148 144 142 167 177 149 164 164 132 177 146 153 162 158 219 160 156 175
206 190 188 197 197 190 189 212 186 198 188 182 169 166 179 176 185 170 166 178 180 178 167 159 179 156 164 166 166 168 131 183 179 145 176 148 167 122 207 139 189 219 162
213 207 201 206 209 191 217 209 180 211 191 181 176 194 188 194 180 188 178 178 200 193 193 187 186 168 179 155 153 161 154 178 182 171 148 167 200 220 185 182 186 164 197
204 219 205 207 207 199 189 215 183 193 191 174 179 174 193 192 182 182 164 170 204 201 164 162 193 181 166 170 147 182 198 198 154 181 208 141 185 156 203 165 197 205 210
206 208 205 195 194 193 190 189 192 195 190 206 194 209 178 180 179 192 198 172 170 174 181 179 185 187 170 171 177 172 183 175 176 201 165 173 191 163 198 163 193 191 205
217 210 192 204 189 195 197 186 190 200 196 203 213 201 185 196 180 189 176 185 191 188 181 200 204 166 177 196 161 163 188 183 196 199 184 185 188 166 201 182 165 173 202
206 221 203 217 200 222 215 183 179 198 198 204 181 188 198 220 189 204 201 177 195 180 177 211 204 205 179 203 181 201 191 179 197 200 180 200 202 177 175 163 166 216 174
226 216 206 202 210 197 202 187 191 202 192 207 212 194 190 201 202 203 180 180 188 147 147 188 199 183 207 179 214 201 188 171 192 188 180 183 185 185 162 190 185 186 162
239 205 213 218 199 198 208 183 207 183 200 180 204 195 194 177 182 188 186 206 211 190 199 196 202 191 195 192 203 206 165 192 176 179 204 194 198 193 152 174 190 144 150
217 232 228 213 212 213 221 194 208 187 214 212 204 203 190 192 193 185 199 202 189 189 187 192 191 191 195 188 197 191 200 203 198 184 189 156 197 199 191 176 144 146 197
173 231 211 233 217 229 214 231 204 227 193 199 202 201 167 196 193 194 193 216 203 160 159 159 200 202 192 192 183 180 194 199 194 179 188 210 182 195 181 209 196 220 203
237 218 237 110 108 228 199 202 226 189 217 203 216 215 205 200 192 192 186 201 202 187 175 196 192 169 168 167 168 188 189 192 196 205 194 207 200 197 201 198 208 212 217
319 278 153 169 209 214 207 195 223 215 209 184 193 204 205 210 205 186 214 217 196 199 210 218 201 200 192 210 187 189 207 202 201 203 198 203 205 207 210 200 196 203 212
237 245 265 267 271 260 303 340 235 247 215 218 220 199 221 218 198 193 202 199 200 203 218 206 212 209 201 202 200 205 208 206 206 212 197 187 195 205 207 221 217 221 207
277 188 270 230 257 287 270 257 249 251 357 353 350 253 237 241 229 227 216 216 215 216 221 218 215 216 212 212 222 223 215 209 212 213 188 218 216 229 208 219 216 244 244
257 203 233 235 235 259 279 272 310 331 288 317 350 346 337 346 346 301 273 246 234 229 226 210 223 206 217 207 208 208 209 212 209 200 227 214 216 224 213 241 227 236 303
245 242 252 246 246 255 267 330 334 373 360 363 372 364 322 369 360 350 322 315 303 230 242 234 230 229 223 223 218 206 213 211 214 218 217 239 249 241 232 235 284 273 292
230 233 228 256 254 312 340 393 374 356 353 364 376 409 386 391 436 364 343 317 306 311 319 322 294 310 252 247 245 242 243 240 237 237 236 236 207 278 270 248 278 270 295
228 257 253 240 252 346 395 377 352 350 361 389 375 379 393 402 419 409 399 332 315 300 296 318 304 307 316 313 296 311 281 288 279 278 290 280 276 240 277 268 276 283 266
241 239 249 254 358 409 385 364 358 350 372 371 422 449 435 414 412 416 413 364 327 307 296 296 292 292 293 300 302 306 303 300 299 277 295 290 272 248 264 273 264 267 299
237 225 271 246 255 406 381 358 355 364 351 372 427 419 396 407 409 394 370 368 341 312 307 305 307 298 289 286 282 280 291 276 264 268 264 273 266 260 258 263 277 303 290
Wind_Speed
71 84 89 77 87 27 89 85 77 76 82 85 81 84 88 82 65 66 72 76 78 70 47 54 72 76 78 73 53 71 71 55 63 57 56 60 69 52 71 56 62 76 82
90 90 91 93 92 86 83 82 78 86 89 92 78 86 87 65 81 67 65 79 79 64 60 69 82 68 64 70 64 59 54 67 52 79 69 70 72 52 70 64 61 72 68
87 92 83 91 92 85 84 84 91 91 88 91 95 95 94 86 79 82 77 86 75 67 72 71 71 82 80 72 70 69 88 68 64 52 70 74 55 61 59 64 83 59 60
85 90 91 94 94 85 88 94 94 96 96 97 98 89 94 97 93 87 94 75 80 84 59 67 77 78 83 89 88 61 82 60 69 87 66 72 62 87 64 79 50 92 67
92 96 98 97 93 87 99 89 105 96 104 100 103 97 81 82 105 100 100 90 79 81 93 70 64 63 62 79 56 56 80 98 59 68 63 97 57 51 62 60 81 53 72
95 100 98 100 94 92 105 91 102 106 110 106 102 102 99 102 107 99 78 95 99 104 73 103 91 70 66 67 76 92 60 74 67 69 85 62 71 70 63 100 58 52 62
104 99 100 101 107 100 104 107 99 117 107 109 93 94 111 111 89 104 96 112 110 105 89 80 103 74 74 79 78 81 69 98 95 69 91 71 81 64 99 70 83 98 60
113 116 112 115 115 107 100 112 103 114 117 111 110 119 120 116 121 122 113 106 108 114 117 114 112 94 105 74 73 81 71 97 100 88 67 81 108 96 96 88 88 65 107
112 114 110 109 109 111 107 111 110 115 117 93 107 96 121 124 112 122 91 96 116 120 79 76 118 106 91 92 73 110 118 116 77 105 111 69 103 69 115 67 111 120 115
110 121 109 108 113 114 109 112 122 117 115 118 121 114 104 113 111 119 126 104 98 97 108 96 110 98 90 97 106 100 109 98 99 115 86 95 112 78 110 77 111 112 102
126 124 100 108 102 117 121 104 116 122 114 122 117 125 118 124 116 129 108 116 125 127 117 123 126 87 101 115 89 89 110 101 111 111 113 114 116 80 115 106 84 90 116
106 126 114 120 116 115 122 93 90 115 127 123 103 120 130 108 124 127 131 103 136 117 106 121 128 125 102 120 112 119 117 108 114 116 111 114 119 109 101 88 83 108 94
123 123 114 106 122 106 123 95 106 128 119 119 121 128 124 130 128 126 109 115 126 85 85 117 122 108 122 109 118 120 116 102 112 114 113 111 116 114 81 118 110 116 75
126 96 121 126 105 97 120 88 123 95 125 96 123 120 131 99 112 116 117 132 127 127 135 133 132 127 129 127 131 129 98 114 105 100 119 112 124 124 78 96 119 71 80
104 124 129 106 114 132 122 105 132 91 135 138 131 133 124 132 130 119 132 131 129 129 125 129 131 130 133 126 136 133 130 135 127 121 125 87 130 132 121 110 77 79 127
54 120 104 136 110 141 134 137 113 139 101 118 129 133 87 135 132 134 132 146 142 90 86 85 148 147 142 141 116 110 137 140 131 102 126 140 110 131 105 140 128 142 140
126 106 130 29 30 122 86 100 140 101 137 128 148 149 129 127 120 122 109 146 148 120 107 140 135 95 92 92 93 114 130 133 141 143 134 145 139 136 136 134 147 148 147
16 102 51 80 99 113 119 108 140 139 139 98 119 145 144 152 141 119 159 148 130 140 146 143 137 148 131 143 121 131 150 140 147 144 139 139 150 149 155 137 122 128 143
22 26 31 43 66 87 67 58 150 164 158 162 163 129 164 164 135 128 147 129 133 143 168 153 157 166 154 158 150 156 155 153 160 164 129 112 129 151 154 149 136 149 135
33 52 35 48 35 43 50 74 91 97 70 72 98 169 158 192 176 177 172 177 179 180 175 178 174 179 170 167 168 171 167 157 160 158 115 160 157 161 140 159 155 163 148
46 58 39 36 49 50 57 61 72 74 88 83 72 80 88 88 91 138 164 194 184 185 185 152 180 148 178 168 170 167 163 163 156 137 166 146 156 164 138 160 144 153 78
47 54 63 59 58 65 75 78 78 69 68 70 76 83 103 93 91 95 101 103 126 130 194 187 185 181 173 173 174 148 159 151 168 176 167 168 160 154 150 153 100 110 80
49 55 53 77 78 88 85 67 60 60 68 74 82 78 73 74 68 94 97 102 102 91 84 85 122 103 179 181 178 175 173 172 168 168 166 162 129 98 103 139 90 104 73
66 78 82 77 86 89 64 57 60 62 69 70 63 69 72 69 62 62 79 96 99 99 96 76 85 85 82 88 105 85 118 104 110 111 93 96 95 132 79 89 81 75 87
80 79 85 90 93 61 53 56 57 61 63 58 61 42 39 42 47 47 43 81 93 90 92 90 86 83 85 75 71 69 78 79 72 89 64 63 79 107 84 76 83 79 58
83 67 95 87 98 51 50 55 51 54 39 36 39 30 29 29 27 28 40 55 73 84 83 82 72 71 77 72 77 80 72 84 92 83 81 67 70 76 80 76 66 52 51
Wind_Direction
258 244 253 260 256 252 257 257 257 245 241 245 262 249 252 253 264 264 265 254 254 267 266 268 273 277 274 277 272 282 285 275 269 293 273 292 286 292 292 293 299 297 292
243 248 250 250 253 252 255 255 256 237 235 245 239 253 252 264 254 265 261 258 260 261 268 271 267 273 274 278 277 282 285 282 290 284 292 290 283 280 291 291 297 291 307
237 242 229 233 251 252 231 244 222 236 248 239 251 249 254 249 263 264 262 259 263 266 267 265 268 268 277 272 274 281 281 286 282 278 286 293 273 273 285 296 302 298 301
235 239 240 241 247 250 253 215 226 233 240 246 247 259 248 259 254 257 254 262 261 261 269 270 271 273 273 276 278 265 281 278 280 284 284 282 282 297 282 297 278 307 300
232 236 238 240 246 246 225 249 221 239 233 242 243 256 267 264 254 259 258 262 257 267 263 271 267 278 268 276 268 270 279 277 270 289 276 290 274 265 285 279 304 271 297
233 235 227 231 227 225 216 244 222 222 227 238 248 251 254 257 258 258 254 251 259 257 273 262 263 269 270 272 268 280 272 282 284 274 291 273 287 280 278 295 285 274 301
203 218 223 218 218 221 227 217 233 223 232 236 253 259 246 250 250 252 265 260 259 258 266 273 265 276 280 283 284 289 267 288 283 275 292 277 289 277 295 276 293 299 290
195 204 210 210 212 227 212 215 242 227 230 237 249 236 241 243 251 248 257 263 249 255 255 259 262 273 273 277 279 283 280 285 281 289 275 289 289 293 294 298 302 293 302
206 201 209 207 211 221 235 217 239 233 233 255 252 257 239 244 257 254 270 271 256 255 275 274 262 270 276 277 275 279 275 277 281 284 283 274 292 277 293 291 296 299 298
211 209 215 225 226 231 235 236 236 235 238 235 241 239 255 254 261 251 248 269 273 276 272 268 272 267 269 273 275 276 280 280 283 284 284 292 291 292 289 291 294 297 295
205 211 227 224 234 229 229 244 239 235 240 236 238 240 248 244 257 252 266 261 258 260 270 265 264 273 275 270 276 279 278 279 281 277 283 285 287 290 286 293 290 296 292
218 211 220 215 227 221 221 249 253 240 238 237 258 251 247 245 250 247 251 265 257 265 270 259 262 263 275 266 277 272 275 278 278 277 285 279 278 287 292 287 291 290 294
208 216 223 227 222 235 227 249 247 238 248 241 239 247 256 248 247 248 269 267 262 269 269 268 264 270 266 273 264 271 273 276 276 278 282 283 283 285 284 293 293 296 293
212 223 221 217 237 243 230 252 233 265 244 266 247 252 252 270 265 261 260 255 254 263 261 264 264 269 269 271 269 271 276 276 279 280 282 284 285 285 282 286 289 282 285
222 220 218 235 231 226 232 250 236 261 238 239 245 247 257 257 256 266 256 254 265 266 269 267 268 269 270 274 272 275 271 272 274 280 282 280 282 285 280 286 279 280 293
252 225 236 224 238 226 239 230 244 232 262 252 248 250 267 255 257 260 261 252 259 267 269 269 264 265 268 269 272 275 275 276 280 279 282 279 286 284 288 285 291 285 292
227 235 228 264 274 239 255 252 236 262 245 258 246 248 257 257 262 262 264 258 258 265 266 266 266 270 272 273 274 271 276 276 278 275 281 279 282 285 286 287 288 288 290
259 240 256 246 247 249 250 255 249 253 256 263 259 258 258 255 256 264 255 252 264 262 258 255 261 267 271 266 273 273 270 271 275 277 279 281 280 282 283 285 286 289 291
234 243 242 243 245 247 256 281 246 248 251 250 250 260 251 251 258 261 259 262 263 262 255 262 259 261 265 266 269 270 269 271 274 274 279 280 283 282 282 281 287 289 289
337 286 318 237 279 298 258 250 247 250 280 275 260 250 254 247 249 250 253 253 254 257 256 258 260 261 263 264 263 264 266 269 271 275 277 276 278 279 282 281 286 285 289
332 245 292 282 276 293 301 297 298 293 259 264 267 262 258 253 248 249 251 248 251 253 254 258 258 263 262 266 267 268 270 271 273 276 273 276 278 280 282 281 283 288 288
338 337 330 327 319 319 318 306 302 291 290 288 281 272 261 262 251 246 241 246 250 257 251 251 255 257 261 262 263 266 268 271 270 272 274 275 277 277 281 284 285 286 287
338 337 325 330 327 326 314 308 302 295 293 293 284 279 269 268 262 247 239 239 242 246 246 249 252 252 257 258 260 261 263 265 267 268 270 274 275 280 281 283 281 285 286
335 332 333 333 332 322 312 303 306 301 299 291 290 281 273 268 256 249 244 235 237 242 247 246 249 251 251 255 256 260 261 262 264 268 274 271 276 278 279 278 281 284 285
334 337 335 336 329 320 312 308 301 304 302 305 294 285 262 254 253 244 231 239 235 236 242 245 245 250 254 256 258 261 262 264 263 269 265 266 272 274 275 277 279 283 286
334 337 338 339 340 318 313 312 303 304 313 328 304 277 266 258 229 218 235 232 237 235 240 242 240 242 251 254 257 261 262 263 264 267 267 268 269 272 275 278 283 280 280